Oakland, CA

4:19 PM PDT on March 30, 2017 (GMT -0700)
Metro Oakland International

Weather History for KOAK - March, 2013

Change the Weather History Date:

Tuesday, March 26, 2013

  Actual Average Record
Temperature  
Mean Temperature 58 °F 55 °F  
Max Temperature 64 °F 64 °F 80 °F (1952)
Min Temperature 51 °F 47 °F 41 °F (2006)
Degree Days  
Heating Degree Days 7 10  
Month to date heating degree days 236 284  
Since 1 July heating degree days 2142 2306  
Cooling Degree Days 0 0  
Month to date cooling degree days 0 0  
Year to date cooling degree days 0 0  
Growing Degree Days 7 (Base 50)    
Moisture  
Dew Point 47 °F    
Average Humidity 75    
Maximum Humidity 89    
Minimum Humidity 60    
Precipitation  
Precipitation 0.00 in 0.09 in 0.94 in (1985)
Month to date precipitation 0.32 2.68  
Year to date precipitation 1.13 10.62  
Since 1 July precipitation 12.12  
Sea Level Pressure  
Sea Level Pressure 30.01 in    
Wind  
Wind Speed 9 mph (West)    
Max Wind Speed 16 mph    
Max Gust Speed 18 mph    
Visibility 10 miles    
Events      
T = Trace of Precipitation, MM = Missing Value Source: NWS Daily Summary

Daily Weather History Graph

Daily Weather History Graph

Search for Another Location

Airport or City:

Trip Planner

Search our weather history database for the weather conditions in past years. The results will help you decide how hot, cold, wet, or windy it might be!

Date:

Astronomy

Mar. 26, 2013 Rise Set
Actual Time 7:02 AM PDT 7:26 PM PDT
Civil Twilight 6:36 AM PDT 7:52 PM PDT
Nautical Twilight 6:05 AM PDT 8:23 PM PDT
Astronomical Twilight 5:34 AM PDT 8:55 PM PDT
Moon 7:08 PM PDT (3/26) 6:22 AM PDT (3/26)
Length of Visible Light 13h 16m
Length of Day
12h 23m
Full, 100% of the Moon is Illuminated
Mar 26
Full
Mar 27
Full
Apr 2
Last Quarter
Apr 10
New
Apr 18
First Quarter

Hourly Weather History & Observations

Time (PDT) Temp. Dew Point Humidity Pressure Visibility Wind Dir Wind Speed Gust Speed Precip Events Conditions
12:18 AM 51.8 °F 44.6 °F 76% 30.04 in 10.0 mi West 12.7 mph - N/A   Mostly Cloudy
12:53 AM 52.0 °F 46.0 °F 80% 30.04 in 10.0 mi WNW 9.2 mph - N/A   Overcast
1:53 AM 52.0 °F 46.9 °F 83% 30.03 in 10.0 mi West 9.2 mph - N/A   Overcast
2:53 AM 52.0 °F 46.9 °F 83% 30.02 in 10.0 mi West 10.4 mph - N/A   Overcast
3:00 AM 51.8 °F 46.4 °F 82% 30.02 in 10.0 mi WSW 10.4 mph - N/A   Overcast
3:27 AM 51.8 °F 48.2 °F 88% 30.01 in 10.0 mi WSW 9.2 mph - N/A   Overcast
3:53 AM 52.0 °F 46.9 °F 83% 30.01 in 10.0 mi WSW 10.4 mph - N/A   Overcast
4:53 AM 52.0 °F 46.9 °F 83% 30.01 in 10.0 mi WSW 11.5 mph - N/A   Overcast
5:53 AM 52.0 °F 48.0 °F 86% 30.01 in 10.0 mi West 8.1 mph - N/A   Mostly Cloudy
6:53 AM 52.0 °F 46.9 °F 83% 30.01 in 10.0 mi West 8.1 mph - N/A   Overcast
7:53 AM 52.0 °F 46.9 °F 83% 30.02 in 10.0 mi West 6.9 mph - N/A   Mostly Cloudy
8:53 AM 53.1 °F 46.9 °F 80% 30.03 in 10.0 mi West 5.8 mph - N/A   Mostly Cloudy
9:53 AM 55.0 °F 46.9 °F 74% 30.03 in 10.0 mi WSW 3.5 mph - N/A   Mostly Cloudy
10:15 AM 55.4 °F 46.4 °F 72% 30.03 in 10.0 mi South 3.5 mph - N/A   Scattered Clouds
10:53 AM 55.4 °F 46.4 °F 72% 30.04 in 10.0 mi SSW 4.6 mph - N/A   Scattered Clouds
11:53 AM 57.9 °F 46.9 °F 67% 30.03 in 10.0 mi SSW 5.8 mph - N/A   Mostly Cloudy
12:53 PM 59.0 °F 46.9 °F 64% 30.03 in 10.0 mi SW 8.1 mph - N/A   Scattered Clouds
1:53 PM 62.1 °F 48.0 °F 60% 30.01 in 10.0 mi West 8.1 mph - N/A   Mostly Cloudy
2:53 PM 62.1 °F 48.9 °F 62% 29.99 in 10.0 mi West 13.8 mph - N/A   Mostly Cloudy
3:53 PM 63.0 °F 48.9 °F 60% 29.98 in 10.0 mi WNW 10.4 mph - N/A   Mostly Cloudy
4:53 PM 62.1 °F 48.0 °F 60% 29.97 in 10.0 mi WNW 15.0 mph - N/A   Mostly Cloudy
5:53 PM 61.0 °F 48.0 °F 62% 29.96 in 10.0 mi West 12.7 mph - N/A   Mostly Cloudy
6:53 PM 57.9 °F 46.9 °F 67% 29.97 in 10.0 mi WNW 9.2 mph - N/A   Mostly Cloudy
7:53 PM 57.0 °F 46.9 °F 69% 29.98 in 10.0 mi WNW 10.4 mph - N/A   Mostly Cloudy
8:53 PM 55.0 °F 48.9 °F 80% 29.99 in 10.0 mi WNW 9.2 mph - N/A   Mostly Cloudy
9:53 PM 55.0 °F 50.0 °F 83% 30.00 in 10.0 mi West 12.7 mph - N/A   Mostly Cloudy
10:53 PM 54.0 °F 48.9 °F 83% 30.01 in 10.0 mi WNW 4.6 mph - N/A   Mostly Cloudy
11:53 PM 54.0 °F 50.0 °F 86% 30.01 in 10.0 mi West 8.1 mph - N/A   Scattered Clouds